Location: Caixon
(43.4106°N, 0.0273°E)
Time: 16:17:48
(UTC+00:00)

Lacrosse 5 - Pass Details

Date: 16 October 2021
Orbit: 714 x 724 km, 57.0° (Epoch: 28 August)

Event Time Altitude Azimuth Distance (km) Brightness Sun altitude
Exits shadow 04:46:37 - 324° (NW) 2,295 4.2 -16.8°
Reaches altitude 10° 04:46:53 10° 326° (NW) 2,213 4.1 -16.8°
Maximum altitude 04:51:04 25° 21° (NNE) 1,437 3.7 -16.0°
Drops below altitude 10° 04:55:14 10° 77° (ENE) 2,203 5.7 -15.3°
Sets 04:58:00 0° 91° (E) 3,119 7.1 -14.8°
